Year,Month,Day,Hour,Minute,Value (Times are PST for windgust in km/hr)
2016,09,28,00,00,33.80
2016,09,28,00,01,30.60
2016,09,28,00,02,30.60
2016,09,28,00,03,30.60
2016,09,28,00,04,27.40
2016,09,28,00,05,20.90
2016,09,28,00,06,30.60
2016,09,28,00,07,29.00
2016,09,28,00,08,32.20
2016,09,28,00,09,43.50
2016,09,28,00,10,35.40
2016,09,28,00,11,29.00
2016,09,28,00,12,24.20
2016,09,28,00,13,27.40
2016,09,28,00,14,27.40
2016,09,28,00,15,29.00
2016,09,28,00,16,19.30
2016,09,28,00,17,24.20
2016,09,28,00,18,27.40
2016,09,28,00,19,32.20
2016,09,28,00,20,25.70
2016,09,28,00,21,29.00
2016,09,28,00,22,30.60
2016,09,28,00,23,29.00
2016,09,28,00,24,24.20
2016,09,28,00,25,27.40
2016,09,28,00,26,32.20
2016,09,28,00,27,33.80
2016,09,28,00,28,33.80
2016,09,28,00,29,25.70
2016,09,28,00,30,27.40
2016,09,28,00,31,33.80
2016,09,28,00,32,32.20
2016,09,28,00,33,29.00
2016,09,28,00,34,32.20
2016,09,28,00,35,27.40
2016,09,28,00,36,29.00
2016,09,28,00,37,24.20
2016,09,28,00,38,22.50
2016,09,28,00,39,22.50
2016,09,28,00,40,17.70
2016,09,28,00,41,24.20
2016,09,28,00,42,32.20
2016,09,28,00,43,25.70
2016,09,28,00,44,27.40
2016,09,28,00,45,22.50
2016,09,28,00,46,25.70
2016,09,28,00,47,25.70
2016,09,28,00,48,32.20
2016,09,28,00,49,30.60
2016,09,28,00,50,25.70
2016,09,28,00,51,27.40
2016,09,28,00,52,27.40
2016,09,28,00,53,25.70
2016,09,28,00,54,29.00
2016,09,28,00,55,29.00
2016,09,28,00,56,29.00
2016,09,28,00,57,25.70
2016,09,28,00,58,30.60
2016,09,28,00,59,27.40
2016,09,28,01,00,25.70
2016,09,28,01,01,24.20
2016,09,28,01,02,17.70
2016,09,28,01,03,19.30
2016,09,28,01,04,27.40
2016,09,28,01,05,27.40
2016,09,28,01,06,32.20
2016,09,28,01,07,30.60
2016,09,28,01,08,35.40
2016,09,28,01,09,29.00
2016,09,28,01,10,25.70
2016,09,28,01,11,32.20
2016,09,28,01,12,24.20
2016,09,28,01,13,24.20
2016,09,28,01,14,29.00
2016,09,28,01,15,22.50
2016,09,28,01,16,27.40
2016,09,28,01,17,24.20
2016,09,28,01,18,27.40
2016,09,28,01,19,30.60
2016,09,28,01,20,22.50
2016,09,28,01,21,30.60
2016,09,28,01,22,33.80
2016,09,28,01,23,29.00
2016,09,28,01,24,29.00
2016,09,28,01,25,19.30
2016,09,28,01,26,27.40
2016,09,28,01,27,22.50
2016,09,28,01,28,17.70
2016,09,28,01,29,24.20
2016,09,28,01,30,30.60
2016,09,28,01,31,27.40
2016,09,28,01,32,25.70
2016,09,28,01,33,33.80
2016,09,28,01,34,27.40
2016,09,28,01,35,25.70
2016,09,28,01,36,24.20
2016,09,28,01,37,32.20
2016,09,28,01,38,20.90
2016,09,28,01,39,22.50
2016,09,28,01,40,32.20
2016,09,28,01,41,25.70
2016,09,28,01,42,25.70
2016,09,28,01,43,24.20
2016,09,28,01,44,27.40
2016,09,28,01,45,33.80
2016,09,28,01,46,29.00
2016,09,28,01,47,30.60
2016,09,28,01,48,30.60
2016,09,28,01,49,27.40
2016,09,28,01,50,24.20
2016,09,28,01,51,29.00
2016,09,28,01,52,27.40
2016,09,28,01,53,30.60
2016,09,28,01,54,25.70
2016,09,28,01,55,30.60
2016,09,28,01,56,25.70
2016,09,28,01,57,25.70
2016,09,28,01,58,25.70
2016,09,28,01,59,29.00
2016,09,28,02,00,24.20
2016,09,28,02,01,24.20
2016,09,28,02,02,24.20
2016,09,28,02,03,22.50
2016,09,28,02,04,19.30
2016,09,28,02,05,29.00
2016,09,28,02,06,25.70
2016,09,28,02,07,25.70
2016,09,28,02,08,30.60
2016,09,28,02,09,30.60
2016,09,28,02,10,27.40
2016,09,28,02,11,29.00
2016,09,28,02,12,27.40
2016,09,28,02,13,24.20
2016,09,28,02,14,29.00
2016,09,28,02,15,30.60
2016,09,28,02,16,24.20
2016,09,28,02,17,25.70
2016,09,28,02,18,29.00
2016,09,28,02,19,25.70
2016,09,28,02,20,32.20
2016,09,28,02,21,27.40
2016,09,28,02,22,29.00
2016,09,28,02,23,32.20
2016,09,28,02,24,30.60
2016,09,28,02,25,40.20
2016,09,28,02,26,29.00
2016,09,28,02,27,25.70
2016,09,28,02,28,25.70
2016,09,28,02,29,25.70
2016,09,28,02,30,22.50
2016,09,28,02,31,17.70
2016,09,28,02,32,24.20
2016,09,28,02,33,24.20
2016,09,28,02,34,24.20
2016,09,28,02,35,24.20
2016,09,28,02,36,27.40
2016,09,28,02,37,29.00
2016,09,28,02,38,30.60
2016,09,28,02,39,20.90
2016,09,28,02,40,33.80
2016,09,28,02,41,29.00
2016,09,28,02,42,29.00
2016,09,28,02,43,37.00
2016,09,28,02,44,32.20
2016,09,28,02,45,32.20
2016,09,28,02,46,27.40
2016,09,28,02,47,22.50
2016,09,28,02,48,27.40
2016,09,28,02,49,20.90
2016,09,28,02,50,30.60
2016,09,28,02,51,29.00
2016,09,28,02,52,25.70
2016,09,28,02,53,27.40
2016,09,28,02,54,27.40
2016,09,28,02,55,35.40
2016,09,28,02,56,32.20
2016,09,28,02,57,22.50
2016,09,28,02,58,19.30
2016,09,28,02,59,22.50
2016,09,28,03,00,25.70
2016,09,28,03,01,25.70
2016,09,28,03,02,35.40
2016,09,28,03,03,25.70
2016,09,28,03,04,35.40
2016,09,28,03,05,22.50
2016,09,28,03,06,25.70
2016,09,28,03,07,24.20
2016,09,28,03,08,22.50
2016,09,28,03,09,24.20
2016,09,28,03,10,24.20
2016,09,28,03,11,22.50
2016,09,28,03,12,29.00
2016,09,28,03,13,29.00
2016,09,28,03,14,27.40
2016,09,28,03,15,38.60
2016,09,28,03,16,27.40
2016,09,28,03,17,30.60
2016,09,28,03,18,33.80
2016,09,28,03,19,30.60
2016,09,28,03,20,32.20
2016,09,28,03,21,32.20
2016,09,28,03,22,25.70
2016,09,28,03,23,25.70
2016,09,28,03,24,19.30
2016,09,28,03,25,24.20
2016,09,28,03,26,20.90
2016,09,28,03,27,37.00
2016,09,28,03,28,30.60
2016,09,28,03,29,33.80
2016,09,28,03,30,32.20
2016,09,28,03,31,22.50
2016,09,28,03,32,25.70
2016,09,28,03,33,24.20
2016,09,28,03,34,25.70
2016,09,28,03,35,20.90
2016,09,28,03,36,30.60
2016,09,28,03,37,22.50
2016,09,28,03,38,22.50
2016,09,28,03,39,20.90
2016,09,28,03,40,27.40
2016,09,28,03,41,24.20
2016,09,28,03,42,16.10
2016,09,28,03,43,25.70
2016,09,28,03,44,29.00
2016,09,28,03,45,29.00
2016,09,28,03,46,29.00
2016,09,28,03,47,29.00
2016,09,28,03,48,24.20
2016,09,28,03,49,30.60
2016,09,28,03,50,25.70
2016,09,28,03,51,22.50
2016,09,28,03,52,27.40
2016,09,28,03,53,30.60
2016,09,28,03,54,29.00
2016,09,28,03,55,22.50
2016,09,28,03,56,24.20
2016,09,28,03,57,22.50
2016,09,28,03,58,20.90
2016,09,28,03,59,27.40
2016,09,28,04,00,25.70
2016,09,28,04,01,30.60
2016,09,28,04,02,32.20
2016,09,28,04,03,27.40
2016,09,28,04,04,22.50
2016,09,28,04,05,29.00
2016,09,28,04,06,27.40
2016,09,28,04,07,33.80
2016,09,28,04,08,27.40
2016,09,28,04,09,27.40
2016,09,28,04,10,27.40
2016,09,28,04,11,29.00
2016,09,28,04,12,25.70
2016,09,28,04,13,24.20
2016,09,28,04,14,19.30
2016,09,28,04,15,27.40
2016,09,28,04,16,27.40
2016,09,28,04,17,29.00
2016,09,28,04,18,32.20
2016,09,28,04,19,25.70
2016,09,28,04,20,20.90
2016,09,28,04,21,24.20
2016,09,28,04,22,25.70
2016,09,28,04,23,29.00
2016,09,28,04,24,24.20
2016,09,28,04,25,32.20
2016,09,28,04,26,25.70
2016,09,28,04,27,29.00
2016,09,28,04,28,20.90
2016,09,28,04,29,19.30
2016,09,28,04,30,25.70
2016,09,28,04,31,24.20
2016,09,28,04,32,25.70
2016,09,28,04,33,32.20
2016,09,28,04,34,24.20
2016,09,28,04,35,20.90
2016,09,28,04,36,27.40
2016,09,28,04,37,24.20
2016,09,28,04,38,32.20
2016,09,28,04,39,33.80
2016,09,28,04,40,30.60
2016,09,28,04,41,20.90
2016,09,28,04,42,22.50
2016,09,28,04,43,22.50
2016,09,28,04,44,25.70
2016,09,28,04,45,25.70
2016,09,28,04,46,29.00
2016,09,28,04,47,33.80
2016,09,28,04,48,22.50
2016,09,28,04,49,24.20
2016,09,28,04,50,22.50
2016,09,28,04,51,29.00
2016,09,28,04,52,27.40
2016,09,28,04,53,22.50
2016,09,28,04,54,27.40
2016,09,28,04,55,25.70
2016,09,28,04,56,41.80
2016,09,28,04,57,48.30
2016,09,28,04,58,43.50
2016,09,28,04,59,38.60
2016,09,28,05,00,33.80
2016,09,28,05,01,32.20
2016,09,28,05,02,24.20
2016,09,28,05,03,22.50
2016,09,28,05,04,29.00
2016,09,28,05,05,43.50
2016,09,28,05,06,38.60
2016,09,28,05,07,45.10
2016,09,28,05,08,35.40
2016,09,28,05,09,41.80
2016,09,28,05,10,24.20
2016,09,28,05,11,22.50
2016,09,28,05,12,25.70
2016,09,28,05,13,29.00
2016,09,28,05,14,29.00
2016,09,28,05,15,32.20
2016,09,28,05,16,27.40
2016,09,28,05,17,22.50
2016,09,28,05,18,22.50
2016,09,28,05,19,27.40
2016,09,28,05,20,20.90
2016,09,28,05,21,30.60
2016,09,28,05,22,27.40
2016,09,28,05,23,29.00
2016,09,28,05,24,38.60
2016,09,28,05,25,27.40
2016,09,28,05,26,32.20
2016,09,28,05,27,24.20
2016,09,28,05,28,24.20
2016,09,28,05,29,24.20
2016,09,28,05,30,24.20
2016,09,28,05,31,19.30
2016,09,28,05,32,22.50
2016,09,28,05,33,25.70
2016,09,28,05,34,29.00
2016,09,28,05,35,29.00
2016,09,28,05,36,29.00
2016,09,28,05,37,32.20
2016,09,28,05,38,27.40
2016,09,28,05,39,30.60
2016,09,28,05,40,29.00
2016,09,28,05,41,29.00
2016,09,28,05,42,20.90
2016,09,28,05,43,24.20
2016,09,28,05,44,27.40
2016,09,28,05,45,24.20
2016,09,28,05,46,29.00
2016,09,28,05,47,27.40
2016,09,28,05,48,25.70
2016,09,28,05,49,25.70
2016,09,28,05,50,24.20
2016,09,28,05,51,17.70
2016,09,28,05,52,22.50
2016,09,28,05,53,25.70
2016,09,28,05,54,30.60
2016,09,28,05,55,32.20
2016,09,28,05,56,24.20
2016,09,28,05,57,24.20
2016,09,28,05,58,19.30
2016,09,28,05,59,27.40
2016,09,28,06,00,27.40
2016,09,28,06,01,25.70
2016,09,28,06,02,22.50
2016,09,28,06,03,24.20
2016,09,28,06,04,19.30
2016,09,28,06,05,20.90
2016,09,28,06,06,22.50
2016,09,28,06,07,22.50
2016,09,28,06,08,24.20
2016,09,28,06,09,16.10
2016,09,28,06,10,30.60
2016,09,28,06,11,24.20
2016,09,28,06,12,19.30
2016,09,28,06,13,19.30
2016,09,28,06,14,24.20
2016,09,28,06,15,22.50
2016,09,28,06,16,20.90
2016,09,28,06,17,22.50
2016,09,28,06,18,22.50
2016,09,28,06,19,20.90
2016,09,28,06,20,24.20
2016,09,28,06,21,20.90
2016,09,28,06,22,22.50
2016,09,28,06,23,27.40
2016,09,28,06,24,20.90
2016,09,28,06,25,20.90
2016,09,28,06,26,32.20
2016,09,28,06,27,30.60
2016,09,28,06,28,20.90
2016,09,28,06,29,24.20
2016,09,28,06,30,19.30
2016,09,28,06,31,19.30
2016,09,28,06,32,27.40
2016,09,28,06,33,25.70
2016,09,28,06,34,16.10
2016,09,28,06,35,19.30
2016,09,28,06,36,24.20
2016,09,28,06,37,19.30
2016,09,28,06,38,24.20
2016,09,28,06,39,17.70
2016,09,28,06,40,24.20
2016,09,28,06,41,25.70
2016,09,28,06,42,24.20
2016,09,28,06,43,43.50
2016,09,28,06,44,49.90
2016,09,28,06,45,20.90
2016,09,28,06,46,20.90
2016,09,28,06,47,20.90
2016,09,28,06,48,29.00
2016,09,28,06,49,24.20
2016,09,28,06,50,24.20
2016,09,28,06,51,27.40
2016,09,28,06,52,24.20
2016,09,28,06,53,33.80
2016,09,28,06,54,27.40
2016,09,28,06,55,25.70
2016,09,28,06,56,29.00
2016,09,28,06,57,27.40
2016,09,28,06,58,29.00
2016,09,28,06,59,32.20
2016,09,28,07,00,30.60
2016,09,28,07,01,29.00
2016,09,28,07,02,32.20
2016,09,28,07,03,29.00
2016,09,28,07,04,25.70
2016,09,28,07,05,25.70
2016,09,28,07,06,22.50
2016,09,28,07,07,29.00
2016,09,28,07,08,17.70
2016,09,28,07,09,25.70
2016,09,28,07,10,32.20
2016,09,28,07,11,25.70
2016,09,28,07,12,22.50
2016,09,28,07,13,25.70
2016,09,28,07,14,22.50
2016,09,28,07,15,27.40
2016,09,28,07,16,24.20
2016,09,28,07,17,25.70
2016,09,28,07,18,19.30
2016,09,28,07,19,27.40
2016,09,28,07,20,25.70
2016,09,28,07,21,25.70
2016,09,28,07,22,25.70
2016,09,28,07,23,24.20
2016,09,28,07,24,24.20
2016,09,28,07,25,20.90
2016,09,28,07,26,25.70
2016,09,28,07,27,24.20
2016,09,28,07,28,29.00
2016,09,28,07,29,25.70
2016,09,28,07,30,22.50
2016,09,28,07,31,24.20
2016,09,28,07,32,27.40
2016,09,28,07,33,29.00
2016,09,28,07,34,25.70
2016,09,28,07,35,22.50
2016,09,28,07,36,22.50
2016,09,28,07,37,16.10
2016,09,28,07,38,25.70
2016,09,28,07,39,24.20
2016,09,28,07,40,27.40
2016,09,28,07,41,22.50
2016,09,28,07,42,24.20
2016,09,28,07,43,20.90
2016,09,28,07,44,24.20
2016,09,28,07,45,25.70
2016,09,28,07,46,24.20
2016,09,28,07,47,27.40
2016,09,28,07,48,27.40
2016,09,28,07,49,25.70
2016,09,28,07,50,25.70
2016,09,28,07,51,22.50
2016,09,28,07,52,30.60
2016,09,28,07,53,25.70
2016,09,28,07,54,19.30
2016,09,28,07,55,19.30
2016,09,28,07,56,22.50
2016,09,28,07,57,30.60
2016,09,28,07,58,22.50
2016,09,28,07,59,20.90
2016,09,28,08,00,27.40
2016,09,28,08,01,27.40
2016,09,28,08,02,25.70
2016,09,28,08,03,27.40
2016,09,28,08,04,29.00
2016,09,28,08,05,24.20
2016,09,28,08,06,30.60
2016,09,28,08,07,24.20
2016,09,28,08,08,25.70
2016,09,28,08,09,24.20
2016,09,28,08,10,24.20
2016,09,28,08,11,29.00
2016,09,28,08,12,24.20
2016,09,28,08,13,29.00
2016,09,28,08,14,27.40
2016,09,28,08,15,30.60
2016,09,28,08,16,30.60
2016,09,28,08,17,29.00
2016,09,28,08,18,30.60
2016,09,28,08,19,24.20
2016,09,28,08,20,25.70
2016,09,28,08,21,25.70
2016,09,28,08,22,19.30
2016,09,28,08,23,24.20
2016,09,28,08,24,29.00
2016,09,28,08,25,20.90
2016,09,28,08,26,29.00
2016,09,28,08,27,29.00
2016,09,28,08,28,20.90
2016,09,28,08,29,27.40
2016,09,28,08,30,25.70
2016,09,28,08,31,24.20
2016,09,28,08,32,25.70
2016,09,28,08,33,22.50
2016,09,28,08,34,20.90
2016,09,28,08,35,24.20
2016,09,28,08,36,20.90
2016,09,28,08,37,16.10
2016,09,28,08,38,22.50
2016,09,28,08,39,25.70
2016,09,28,08,40,29.00
2016,09,28,08,41,20.90
2016,09,28,08,42,20.90
2016,09,28,08,43,29.00
2016,09,28,08,44,16.10
2016,09,28,08,45,20.90
2016,09,28,08,46,20.90
2016,09,28,08,47,27.40
2016,09,28,08,48,27.40
2016,09,28,08,49,32.20
2016,09,28,08,50,25.70
2016,09,28,08,51,32.20
2016,09,28,08,52,30.60
2016,09,28,08,53,29.00
2016,09,28,08,54,27.40
2016,09,28,08,55,20.90
2016,09,28,08,56,27.40
2016,09,28,08,57,25.70
2016,09,28,08,58,24.20
2016,09,28,08,59,20.90
2016,09,28,09,00,24.20
2016,09,28,09,01,32.20
2016,09,28,09,02,29.00
2016,09,28,09,03,25.70
2016,09,28,09,04,25.70
2016,09,28,09,05,22.50
2016,09,28,09,06,27.40
2016,09,28,09,07,25.70
2016,09,28,09,08,25.70
2016,09,28,09,09,30.60
2016,09,28,09,10,29.00
2016,09,28,09,11,33.80
2016,09,28,09,12,25.70
2016,09,28,09,13,22.50
2016,09,28,09,14,24.20
2016,09,28,09,15,20.90
2016,09,28,09,16,19.30
2016,09,28,09,17,20.90
2016,09,28,09,18,30.60
2016,09,28,09,19,29.00
2016,09,28,09,20,24.20
2016,09,28,09,21,19.30
2016,09,28,09,22,19.30
2016,09,28,09,23,17.70
2016,09,28,09,24,24.20
2016,09,28,09,25,29.00
2016,09,28,09,26,27.40
2016,09,28,09,27,33.80
2016,09,28,09,28,22.50
2016,09,28,09,29,24.20
2016,09,28,09,30,24.20
2016,09,28,09,31,24.20
2016,09,28,09,32,20.90
2016,09,28,09,33,30.60
2016,09,28,09,34,33.80
2016,09,28,09,35,30.60
2016,09,28,09,36,27.40
2016,09,28,09,37,40.20
2016,09,28,09,38,33.80
2016,09,28,09,39,25.70
2016,09,28,09,40,24.20
2016,09,28,09,41,25.70
2016,09,28,09,42,19.30
2016,09,28,09,43,25.70
2016,09,28,09,44,22.50
2016,09,28,09,45,69.20
2016,09,28,09,46,66.00
2016,09,28,09,47,75.60
2016,09,28,09,48,19.30
2016,09,28,09,49,25.70
2016,09,28,09,50,33.80
2016,09,28,09,51,35.40
2016,09,28,09,52,46.70
2016,09,28,09,53,109.40
2016,09,28,09,54,25.70
2016,09,28,09,55,74.00
2016,09,28,09,56,46.70
2016,09,28,09,57,67.60
2016,09,28,09,58,25.70
2016,09,28,09,59,38.60
2016,09,28,10,00,29.00
2016,09,28,10,01,27.40
2016,09,28,10,02,33.80
2016,09,28,10,03,66.00
2016,09,28,10,04,32.20
2016,09,28,10,05,78.80
2016,09,28,10,06,82.10
2016,09,28,10,07,69.20
2016,09,28,10,08,49.90
2016,09,28,10,09,82.10
2016,09,28,10,10,101.40
2016,09,28,10,11,78.80
2016,09,28,10,12,37.00
2016,09,28,10,13,72.40
2016,09,28,10,14,51.50
2016,09,28,10,18,91.70
2016,09,28,10,19,75.60
2016,09,28,10,20,6.40
2016,09,28,10,21,3.20
2016,09,28,10,24,9.60
2016,09,28,10,27,3.20
2016,09,28,10,29,3.20
2016,09,28,10,32,3.20
2016,09,28,10,33,1.60
2016,09,28,11,49,4.80
2016,09,28,11,56,3.20
2016,09,28,12,02,27.40
2016,09,28,12,03,1.60
2016,09,28,12,04,3.20
2016,09,28,12,05,16.10
2016,09,28,12,07,8.10
2016,09,28,12,08,1.60
2016,09,28,12,12,3.20
2016,09,28,12,16,14.50
2016,09,28,12,17,14.50
2016,09,28,12,18,6.40
2016,09,28,12,19,4.80
2016,09,28,12,22,4.80
2016,09,28,12,23,11.30
2016,09,28,12,24,11.30
2016,09,28,12,25,17.70
2016,09,28,12,26,16.10
2016,09,28,12,27,9.60
2016,09,28,12,28,9.60
2016,09,28,12,35,4.80
2016,09,28,12,36,11.30
2016,09,28,12,38,3.20
2016,09,28,12,41,8.10
2016,09,28,12,42,9.60
2016,09,28,12,43,9.60
2016,09,28,12,47,9.60
2016,09,28,12,48,8.10
2016,09,28,12,51,1.60
2016,09,28,13,00,3.20
2016,09,28,13,01,17.70
2016,09,28,13,02,19.30
2016,09,28,13,03,32.20
2016,09,28,13,04,30.60
2016,09,28,13,05,30.60
2016,09,28,13,06,45.10
2016,09,28,13,07,32.20
2016,09,28,13,08,43.50
2016,09,28,13,09,48.30
2016,09,28,13,10,61.20
2016,09,28,13,11,61.20
2016,09,28,13,12,61.20
2016,09,28,13,13,54.70
2016,09,28,13,14,53.10
2016,09,28,13,15,40.20
2016,09,28,13,16,25.70
2016,09,28,13,17,29.00
2016,09,28,13,18,24.20
2016,09,28,13,19,29.00
2016,09,28,13,20,29.00
2016,09,28,13,21,32.20
2016,09,28,13,22,32.20
2016,09,28,13,23,40.20
2016,09,28,13,24,33.80
2016,09,28,13,25,37.00
2016,09,28,13,26,40.20
2016,09,28,13,27,24.20
2016,09,28,13,28,20.90
2016,09,28,13,29,22.50
2016,09,28,13,30,32.20
2016,09,28,13,31,29.00
2016,09,28,13,32,30.60
2016,09,28,13,33,29.00
2016,09,28,13,34,29.00
2016,09,28,13,35,24.20
2016,09,28,13,36,20.90
2016,09,28,13,37,20.90
2016,09,28,13,38,25.70
2016,09,28,13,39,27.40
2016,09,28,13,40,27.40
2016,09,28,13,41,27.40
2016,09,28,13,42,22.50
2016,09,28,13,43,29.00
2016,09,28,13,44,22.50
2016,09,28,13,45,22.50
2016,09,28,13,46,25.70
2016,09,28,13,47,19.30
2016,09,28,13,48,20.90
2016,09,28,13,49,20.90
2016,09,28,13,50,19.30
2016,09,28,13,51,20.90
2016,09,28,13,52,17.70
2016,09,28,13,53,16.10
2016,09,28,13,54,11.30
2016,09,28,13,55,14.50
2016,09,28,13,56,14.50
2016,09,28,13,57,16.10
2016,09,28,13,58,17.70
2016,09,28,13,59,16.10
2016,09,28,14,00,22.50
2016,09,28,14,01,24.20
2016,09,28,14,02,17.70
2016,09,28,14,03,29.00
2016,09,28,14,04,25.70
2016,09,28,14,05,29.00
2016,09,28,14,06,22.50
2016,09,28,14,07,24.20
2016,09,28,14,08,46.70
2016,09,28,14,09,45.10
2016,09,28,14,10,40.20
2016,09,28,14,11,38.60
2016,09,28,14,12,48.30
2016,09,28,14,13,43.50
2016,09,28,14,14,40.20
2016,09,28,14,15,43.50
2016,09,28,14,16,40.20
2016,09,28,14,17,49.90
2016,09,28,14,18,49.90
2016,09,28,14,19,49.90
2016,09,28,14,20,45.10
2016,09,28,14,21,45.10
2016,09,28,14,22,48.30
2016,09,28,14,23,29.00
2016,09,28,14,24,37.00
2016,09,28,14,25,33.80
2016,09,28,14,26,40.20
2016,09,28,14,27,29.00
2016,09,28,14,28,29.00
2016,09,28,14,29,22.50
2016,09,28,14,30,22.50
2016,09,28,14,31,14.50
2016,09,28,14,32,1.60
2016,09,28,14,33,19.30
2016,09,28,14,34,11.30
2016,09,28,14,35,1.60
2016,09,28,14,36,4.80
2016,09,28,14,42,1.60
2016,09,28,14,43,8.10
2016,09,28,14,44,11.30
2016,09,28,14,45,6.40
2016,09,28,14,46,1.60
2016,09,28,14,56,6.40
2016,09,28,14,57,16.10
2016,09,28,14,58,14.50
2016,09,28,14,59,17.70
2016,09,28,15,00,22.50
2016,09,28,15,01,20.90
2016,09,28,15,02,24.20
2016,09,28,15,03,20.90
2016,09,28,15,04,22.50
2016,09,28,15,05,25.70
2016,09,28,15,06,25.70
2016,09,28,15,07,29.00
2016,09,28,15,08,27.40
2016,09,28,15,09,16.10
2016,09,28,15,10,24.20
2016,09,28,15,11,19.30
2016,09,28,15,12,20.90
2016,09,28,15,13,25.70
2016,09,28,15,14,20.90
2016,09,28,15,15,25.70
2016,09,28,15,16,17.70
2016,09,28,15,17,16.10
2016,09,28,15,18,17.70
2016,09,28,15,19,19.30
2016,09,28,15,20,29.00
2016,09,28,15,21,30.60
2016,09,28,15,22,20.90
2016,09,28,15,23,20.90
2016,09,28,15,24,20.90
2016,09,28,15,25,27.40
2016,09,28,15,26,24.20
2016,09,28,15,27,25.70
2016,09,28,15,28,30.60
2016,09,28,15,29,29.00
2016,09,28,15,30,30.60
2016,09,28,15,31,25.70
2016,09,28,15,32,27.40
2016,09,28,15,33,25.70
2016,09,28,15,34,30.60
2016,09,28,15,35,30.60
2016,09,28,15,36,27.40
2016,09,28,15,37,25.70
2016,09,28,15,38,29.00
2016,09,28,15,39,24.20
2016,09,28,15,40,27.40
2016,09,28,15,41,22.50
2016,09,28,15,42,27.40
2016,09,28,15,43,27.40
2016,09,28,15,44,27.40
2016,09,28,15,45,30.60
2016,09,28,15,46,33.80
2016,09,28,15,47,32.20
2016,09,28,15,48,33.80
2016,09,28,15,49,33.80
2016,09,28,15,50,27.40
2016,09,28,15,51,30.60
2016,09,28,15,52,29.00
2016,09,28,15,53,29.00
2016,09,28,15,54,27.40
2016,09,28,15,55,33.80
2016,09,28,15,56,33.80
2016,09,28,15,57,30.60
2016,09,28,15,58,33.80
2016,09,28,15,59,29.00
2016,09,28,16,00,32.20
2016,09,28,16,01,27.40
2016,09,28,16,02,27.40
2016,09,28,16,03,30.60
2016,09,28,16,04,33.80
2016,09,28,16,05,27.40
2016,09,28,16,06,25.70
2016,09,28,16,07,24.20
2016,09,28,16,08,27.40
2016,09,28,16,09,33.80
2016,09,28,16,10,33.80
2016,09,28,16,11,30.60
2016,09,28,16,12,27.40
2016,09,28,16,13,30.60
2016,09,28,16,14,33.80
2016,09,28,16,15,33.80
2016,09,28,16,16,25.70
2016,09,28,16,17,24.20
2016,09,28,16,18,24.20
2016,09,28,16,19,24.20
2016,09,28,16,20,27.40
2016,09,28,16,21,30.60
2016,09,28,16,22,35.40
2016,09,28,16,23,30.60
2016,09,28,16,24,27.40
2016,09,28,16,25,24.20
2016,09,28,16,26,19.30
2016,09,28,16,27,20.90
2016,09,28,16,28,29.00
2016,09,28,16,29,24.20
2016,09,28,16,30,20.90
2016,09,28,16,31,20.90
2016,09,28,16,32,25.70
2016,09,28,16,33,30.60
2016,09,28,16,34,32.20
2016,09,28,16,35,24.20
2016,09,28,16,36,24.20
2016,09,28,16,37,27.40
2016,09,28,16,38,24.20
2016,09,28,16,39,20.90
2016,09,28,16,40,19.30
2016,09,28,16,41,20.90
2016,09,28,16,42,20.90
2016,09,28,16,43,19.30
2016,09,28,16,44,16.10
2016,09,28,16,45,17.70
2016,09,28,16,46,19.30
2016,09,28,16,47,24.20
2016,09,28,16,48,27.40
2016,09,28,16,49,33.80
2016,09,28,16,50,27.40
2016,09,28,16,51,14.50
2016,09,28,16,52,33.80
2016,09,28,16,53,27.40
2016,09,28,16,54,11.30
2016,09,28,16,55,16.10
2016,09,28,16,56,12.90
2016,09,28,16,57,17.70
2016,09,28,16,58,20.90
2016,09,28,16,59,24.20
2016,09,28,17,00,29.00
2016,09,28,17,01,22.50
2016,09,28,17,02,27.40
2016,09,28,17,03,32.20
2016,09,28,17,04,29.00
2016,09,28,17,05,24.20
2016,09,28,17,06,29.00
2016,09,28,17,07,29.00
2016,09,28,17,08,33.80
2016,09,28,17,09,20.90
2016,09,28,17,10,27.40
2016,09,28,17,11,33.80
2016,09,28,17,12,22.50
2016,09,28,17,13,20.90
2016,09,28,17,14,17.70
2016,09,28,17,15,16.10
2016,09,28,17,16,16.10
2016,09,28,17,17,14.50
2016,09,28,17,18,19.30
2016,09,28,17,19,11.30
2016,09,28,17,20,16.10
2016,09,28,17,21,11.30
2016,09,28,17,22,14.50
2016,09,28,17,23,14.50
2016,09,28,17,24,14.50
2016,09,28,17,25,11.30
2016,09,28,17,26,16.10
2016,09,28,17,27,12.90
2016,09,28,17,28,16.10
2016,09,28,17,29,9.60
2016,09,28,17,30,17.70
2016,09,28,17,31,11.30
2016,09,28,17,32,11.30
2016,09,28,17,33,9.60
2016,09,28,17,34,9.60
2016,09,28,17,35,9.60
2016,09,28,17,36,6.40
2016,09,28,18,30,6.40
2016,09,28,18,32,9.60
2016,09,28,18,33,8.10
2016,09,28,18,34,11.30
2016,09,28,18,35,14.50
2016,09,28,18,36,4.80
2016,09,28,18,37,3.20
2016,09,28,18,38,16.10
2016,09,28,18,39,9.60
2016,09,28,18,40,3.20
2016,09,28,18,41,9.60
2016,09,28,18,42,8.10
2016,09,28,18,43,9.60
2016,09,28,18,44,11.30
2016,09,28,18,45,8.10
2016,09,28,18,46,9.60
2016,09,28,18,47,14.50
2016,09,28,18,48,12.90
2016,09,28,18,49,8.10
2016,09,28,18,50,9.60
2016,09,28,18,51,14.50
2016,09,28,18,52,16.10
2016,09,28,18,53,17.70
2016,09,28,18,54,17.70
2016,09,28,18,55,20.90
2016,09,28,18,56,17.70
2016,09,28,18,57,19.30
2016,09,28,18,58,19.30
2016,09,28,18,59,24.20
2016,09,28,19,00,22.50
2016,09,28,19,01,17.70
2016,09,28,19,02,14.50
2016,09,28,19,03,17.70
2016,09,28,19,04,22.50
2016,09,28,19,05,20.90
2016,09,28,19,06,14.50
2016,09,28,19,07,11.30
2016,09,28,19,08,17.70
2016,09,28,19,09,12.90
2016,09,28,19,10,14.50
2016,09,28,19,11,14.50
2016,09,28,19,12,16.10
2016,09,28,19,13,14.50
2016,09,28,19,14,11.30
2016,09,28,19,15,17.70
2016,09,28,19,16,14.50
2016,09,28,19,17,9.60
2016,09,28,19,18,11.30
2016,09,28,19,19,9.60
2016,09,28,19,20,9.60
2016,09,28,19,21,9.60
2016,09,28,19,22,9.60
2016,09,28,19,23,6.40
2016,09,28,19,24,8.10
2016,09,28,19,26,1.60
2016,09,28,19,27,8.10
2016,09,28,19,30,1.60
2016,09,28,19,31,1.60
2016,09,28,19,32,1.60
2016,09,28,19,33,3.20
2016,09,28,19,37,8.10
2016,09,28,19,39,6.40
2016,09,28,19,40,4.80
2016,09,28,19,41,6.40
2016,09,28,19,42,8.10
2016,09,28,19,43,8.10
2016,09,28,19,44,4.80
2016,09,28,19,45,8.10
2016,09,28,19,46,8.10
2016,09,28,19,47,8.10
2016,09,28,19,48,6.40
2016,09,28,19,49,6.40
2016,09,28,19,50,6.40
2016,09,28,19,51,6.40
2016,09,28,19,52,8.10
2016,09,28,19,53,8.10
2016,09,28,19,54,8.10
2016,09,28,19,55,9.60
2016,09,28,19,56,11.30
2016,09,28,19,57,14.50
2016,09,28,19,58,11.30
2016,09,28,19,59,9.60
2016,09,28,20,00,8.10
2016,09,28,20,01,8.10
2016,09,28,20,02,9.60
2016,09,28,20,03,4.80
2016,09,28,20,04,9.60
2016,09,28,20,05,8.10
2016,09,28,20,06,8.10
2016,09,28,20,07,8.10
2016,09,28,20,08,4.80
2016,09,28,20,09,1.60
2016,09,28,20,13,3.20
2016,09,28,20,14,3.20
2016,09,28,20,15,1.60
2016,09,28,20,18,4.80
2016,09,28,20,19,4.80
2016,09,28,20,22,1.60
2016,09,28,20,23,1.60
2016,09,28,20,24,3.20
2016,09,28,20,25,4.80
2016,09,28,20,27,4.80
2016,09,28,20,28,4.80
2016,09,28,20,30,1.60
2016,09,28,20,33,1.60
2016,09,28,20,39,3.20
2016,09,28,20,40,6.40
2016,09,28,20,41,1.60
2016,09,28,20,43,1.60
2016,09,28,20,46,1.60
2016,09,28,20,47,3.20
2016,09,28,20,48,3.20
2016,09,28,20,50,1.60
2016,09,28,20,51,1.60
2016,09,28,20,54,1.60
2016,09,28,21,02,4.80
2016,09,28,21,03,1.60
2016,09,28,21,04,3.20
2016,09,28,21,05,3.20
2016,09,28,21,06,3.20
2016,09,28,21,07,1.60
2016,09,28,21,08,4.80
2016,09,28,21,09,1.60
2016,09,28,21,10,3.20
2016,09,28,21,13,1.60
2016,09,28,21,15,1.60
2016,09,28,21,17,3.20
2016,09,28,21,18,1.60
2016,09,28,21,32,1.60
2016,09,28,21,33,3.20